RH
50 49 48 49 52 47 45 50 51 47 46 50 53 54 54 47 44 42 52 56 60 61 60 61 61 61 60 59 60 58 58 55
55 51 47 56 58 46 48 52 48 45 45 49 48 46 43 42 39 41 46 50 52 55 57 54 56 56 58 57 48 51 49 49
59 55 51 49 50 48 54 55 52 51 52 49 50 46 51 41 39 38 41 43 44 47 46 47 49 49 44 43 43 48 45 46
50 56 53 50 26 49 56 49 50 50 50 60 57 61 54 36 38 39 37 40 40 41 43 43 44 48 49 47 47 48 48 48
40 57 58 55 52 47 47 47 52 52 60 60 63 54 57 53 50 48 55 42 48 44 48 46 54 59 58 57 54 51 53 49
35 45 61 62 50 47 50 46 51 52 56 60 66 58 58 61 51 52 58 56 59 58 54 57 60 56 55 56 56 55 51 51
41 49 58 58 60 61 59 57 52 56 57 61 63 64 64 60 57 54 58 58 61 60 58 57 58 55 55 52 50 52 55 53
48 49 58 54 59 60 60 58 54 54 55 56 57 64 69 62 58 56 58 61 64 65 61 62 60 58 54 52 51 50 50 52
49 56 57 58 58 59 56 52 48 52 51 56 53 61 65 67 58 58 59 67 66 64 63 62 61 54 55 52 52 49 50 53
44 32 52 57 61 61 54 52 57 51 52 54 54 57 61 63 58 55 64 68 66 66 65 64 63 61 60 58 55 51 49 51
42 49 51 57 60 59 56 53 54 50 50 49 57 55 57 63 59 58 65 63 66 64 67 66 66 63 59 59 59 58 55 45
43 49 54 57 61 56 50 49 51 50 49 48 50 54 56 63 59 64 62 59 63 70 72 65 65 65 58 60 64 61 57 56
42 50 56 54 52 52 51 52 51 50 48 47 51 54 56 62 60 62 63 60 68 70 67 69 70 63 71 72 68 60 56 55
44 46 49 50 47 49 52 53 48 48 51 52 54 56 59 53 63 63 62 61 69 67 68 73 72 68 88 87 83 61 66 65
43 46 47 50 52 45 52 55 52 52 48 51 52 52 54 58 59 62 64 67 65 71 72 72 90 77 74 95 93 83 76 65
46 47 46 44 52 53 60 52 52 54 52 53 49 56 55 55 58 60 67 65 66 68 68 82 92 94 79 71 88 93 95 89
53 48 44 48 51 55 55 59 54 50 50 57 59 56 59 54 59 64 65 64 64 70 77 83 88 94 92 91 89 93 90 96
55 46 40 46 49 55 60 64 60 55 56 55 55 54 53 56 57 62 64 62 64 68 75 84 95 95 94 94 96 98 94 93
49 39 34 42 50 53 56 59 62 59 58 57 59 55 55 58 61 63 60 66 74 84 95 98 97 98 98 97 94 98 92 89
46 35 36 39 48 53 55 56 53 54 58 58 57 56 57 60 61 60 63 76 92 92 96 95 97 98 98 99 98 94 92 92
Wind_Speed
11 11 10 10 10 7 4 5 4 3 3 5 10 11 9 12 9 8 12 14 14 15 15 15 16 16 16 15 15 15 8 7
5 5 10 11 8 9 7 5 4 3 2 2 10 14 8 14 12 12 12 13 13 14 14 15 16 15 14 11 11 15 9 9
5 5 4 2 9 8 9 9 8 6 6 2 11 6 7 8 13 11 10 11 11 13 11 14 15 15 13 12 12 4 7 4
6 5 3 4 4 1 6 6 6 1 3 5 4 6 7 9 11 15 12 14 13 12 15 14 12 7 6 12 5 7 5 5
10 5 4 5 2 2 3 2 4 3 7 4 5 5 4 4 4 4 4 10 4 7 6 6 8 5 4 5 6 7 4 4
10 9 5 4 4 4 3 4 2 4 4 3 4 4 5 5 4 6 5 4 5 4 5 7 6 7 6 6 6 5 5 3
9 8 5 4 2 4 4 2 3 2 2 5 3 3 5 5 5 6 4 4 4 6 7 6 7 8 6 7 7 7 6 4
7 8 5 4 3 2 2 2 4 3 2 3 2 3 4 4 6 6 5 4 5 4 6 6 5 6 8 7 7 7 6 7
7 7 4 4 4 4 4 4 4 4 2 3 2 4 4 4 6 6 5 4 5 3 6 5 5 5 8 8 8 9 7 6
8 5 7 3 4 3 2 1 2 4 2 3 5 5 5 4 5 7 5 4 4 3 4 4 5 7 8 8 9 9 10 9
8 5 5 5 3 3 4 4 4 4 2 1 6 3 4 4 4 6 6 5 5 3 4 7 8 8 9 9 8 10 10 9
8 5 5 1 4 2 3 4 3 3 2 3 2 2 3 3 5 6 5 7 5 4 4 5 6 8 9 10 9 10 11 9
6 5 4 2 3 4 3 4 4 3 2 4 3 3 2 3 4 4 5 7 6 3 2 4 5 7 8 8 8 12 13 11
5 6 4 5 4 4 2 3 4 3 3 5 4 5 5 4 4 4 5 6 7 4 3 3 5 6 5 6 6 8 5 3
5 6 5 5 5 5 5 5 4 4 5 4 6 7 5 5 5 4 5 5 6 5 5 6 5 6 7 4 4 4 7 4
8 5 6 6 5 5 6 5 6 4 4 5 7 6 6 5 5 5 5 6 8 4 3 3 3 7 6 7 8 6 2 4
6 2 5 5 4 5 5 6 5 6 6 7 7 7 7 6 6 5 6 6 7 5 5 5 6 7 7 7 8 7 8 7
3 1 6 5 5 6 6 6 7 7 7 7 6 7 6 7 7 7 7 8 7 6 8 9 8 9 8 9 8 5 6 6
3 4 6 6 6 6 6 7 7 8 8 7 9 7 7 7 9 8 8 8 9 8 8 8 9 9 10 9 7 7 7 6
7 6 7 7 6 6 6 7 6 6 7 7 7 7 8 10 9 9 9 9 8 9 9 8 9 8 11 9 7 7 6 6
Wind_Direction
135 143 143 141 128 114 88 84 65 19 1 346 329 319 305 314 333 352 344 337 333 331 330 327 324 320 315 315 317 316 308 282
106 98 164 161 155 141 136 147 177 205 236 277 323 308 328 320 340 343 330 330 326 326 325 321 321 316 303 301 301 307 276 245
118 113 90 63 149 152 163 190 200 206 237 238 342 358 334 340 326 323 313 311 319 309 310 315 310 305 336 322 312 264 274 339
147 119 110 189 69 168 194 190 159 217 71 44 351 341 307 342 342 324 340 331 325 332 326 327 6 358 336 326 334 338 340 314
123 114 82 2 77 287 25 18 52 345 69 36 23 333 343 327 333 335 336 322 342 337 340 359 350 315 314 315 318 318 298 299
127 111 122 92 325 38 346 16 30 39 357 45 34 345 337 346 334 333 312 328 331 360 359 338 313 322 298 288 283 284 267 269
118 122 107 90 10 25 2 306 41 7 283 76 46 346 329 343 327 317 322 324 4 8 342 323 322 305 317 292 285 267 287 300
118 110 93 88 47 73 294 19 29 300 14 61 47 42 341 329 322 312 309 343 16 360 315 300 298 293 298 309 311 307 279 275
139 110 101 77 36 17 343 32 355 322 18 30 47 55 325 345 310 311 307 8 335 325 276 281 301 328 316 319 317 299 294 281
159 127 131 107 106 310 356 2 350 279 345 294 70 34 311 348 318 310 322 327 294 277 303 323 335 335 323 317 311 302 291 286
140 118 111 51 353 272 245 210 219 240 263 297 63 359 329 334 306 306 314 307 296 308 4 359 340 329 311 307 310 308 300 298
129 143 93 359 256 348 346 332 340 347 341 6 10 302 292 309 309 299 326 301 303 19 3 338 304 304 311 307 290 279 277 269
134 127 100 337 357 9 356 326 314 316 316 280 334 274 309 302 282 303 305 304 319 350 3 301 299 308 306 297 295 278 268 257
123 100 87 33 11 307 356 334 295 301 3 343 308 7 312 292 303 286 297 302 299 311 281 269 271 273 279 294 293 319 2 301
122 91 67 57 28 345 10 310 345 1 344 329 358 321 312 303 295 290 288 284 289 273 262 263 257 265 263 248 288 279 358 322
84 63 53 47 39 355 348 353 344 327 338 349 330 312 327 322 307 303 314 299 290 290 304 268 266 270 269 249 236 256 243 307
81 114 76 53 17 27 357 353 345 322 329 343 312 347 315 327 328 341 308 294 289 298 277 249 249 251 257 252 243 241 238 236
142 179 84 52 29 18 8 349 340 339 331 334 339 319 334 332 339 318 307 297 302 308 285 263 247 247 243 243 237 222 210 216
194 48 51 50 30 6 5 356 337 340 344 339 336 332 330 327 317 324 310 339 326 309 297 287 271 255 247 239 229 228 230 235
38 38 45 31 21 10 1 356 348 339 345 334 337 334 326 314 331 316 341 336 309 302 279 273 269 256 252 240 227 224 221 222